Regional Weather Roundup
Issued by NWS

Home | Current Version | Previous Version | Text Only | Print | Product List | Glossary Off
Versions: 1 2 3 4 5 6 7 8 9 10 11 12 13 14 15 16 17 18 19 20 21 22 23 24 25 26 27 28 29 30 31 32 33 34 35 36 37 38 39 40 41 42 43 44 45 46 47 48 49 50

000
ASUS43 KOAX 280710
RWRNE

WEATHER ROUNDUP FOR NEBRASKA
NATIONAL WEATHER SERVICE OMAHA NE
200 AM CDT WED SEP 28 2016

NOTES: SATELLITE DATA IS BEING USED TO AUGMENT CLOUD COVER ABOVE
       12000 FEET.
       "FAIR" INDICATES FEW OR NO CLOUDS BELOW 12,000 FEET WITH NO
       SIGNIFICANT WEATHER AND/OR OBSTRUCTIONS TO VISIBILITY.

  * THESE STATIONS DO NOT REPORT WEATHER SUCH AS RAIN...SNOW OR FOG.

NEZ001>004-019>022-054>056-280800-
NEBRASKA PANHANDLE

CITY           SKY/WX    TMP DP  RH WIND       PRES   REMARKS
SCOTTSBLUFF    CLEAR     48  42  80 CALM      30.16R
ALLIANCE       CLEAR     41  38  89 W10       30.13S
CHADRON        CLEAR     49  43  80 SW3       30.12R
KIMBALL        CLEAR     46  38  71 W6        30.20R
SIDNEY         CLEAR     47  38  71 NW5       30.17R
$$

NEZ057>060-069>072-079>082-280800-
SOUTHWEST NEBRASKA

CITY           SKY/WX    TMP DP  RH WIND       PRES   REMARKS
NORTH PLATTE   CLEAR     46  42  86 NW3       30.06S
IMPERIAL       CLEAR     54  37  52 NW5       30.09R
LEXINGTON      CLEAR     49  44  82 NW6       30.03S
MCCOOK         CLEAR     50  42  74 W5        30.05R
OGALLALA       CLEAR     47  41  80 W5        30.10R
$$

NEZ005>010-023>029-035>040-094-280800-
NORTH CENTRAL NEBRASKA

CITY           SKY/WX    TMP DP  RH WIND       PRES   REMARKS
VALENTINE      CLEAR     45  39  79 W5        30.06R
AINSWORTH      CLEAR     49  43  82 W3        30.05R
BROKEN BOW     CLEAR     47  42  83 NW3       30.02S
O`NEILL        CLEAR     51  44  75 W6        30.03R
ORD            CLEAR     48  42  80 NW3       30.00R
THEDFORD       CLEAR     48  42  80 W5        30.07S
$$

NEZ041-046>049-061>064-073>077-083>087-280800-
SOUTH CENTRAL NEBRASKA

CITY           SKY/WX    TMP DP  RH WIND       PRES   REMARKS
GRAND ISLAND   CLEAR     50  45  83 W3        29.98S
AURORA         CLEAR     51  48  89 NW5       29.97S
HASTINGS       CLEAR     54  46  74 N6        29.99R
HEBRON         CLEAR     53  49  86 W3        29.94R
HOLDREGE       CLEAR     53  44  69 NW6       30.01R
KEARNEY *      CLEAR     55  43  62 NW8       30.00R
YORK           CLEAR     50  46  87 N3        29.97R
$$

NEZ011>018-030>034-042>045-280800-
NORTHEAST NEBRASKA

CITY           SKY/WX    TMP DP  RH WIND       PRES   REMARKS
NORFOLK        CLEAR     51  44  77 NW5       29.98R
ALBION         CLEAR     46  44  91 NW6       29.99S
BLAIR          CLEAR     59  47  65 N9        29.93R
FREMONT        CLEAR     51  46  83 N3        29.94R
TEKAMAH        CLEAR     51  45  79 N8        29.94R
WAYNE          CLEAR     44  42  91 CALM      29.98R
$$

NEZ050>053-065>068-078-088>093-280800-
SOUTHEAST NEBRASKA

CITY           SKY/WX    TMP DP  RH WIND       PRES   REMARKS
LINCOLN        CLEAR     53  49  86 N6        29.94R
OMAHA EPPLEY   CLEAR     54  48  80 N8        29.92R
BEATRICE       CLEAR     52  50  94 CALM      29.92R
FALLS CITY     CLEAR     55  51  86 NW7       29.88R
NEBRASKA CITY  CLEAR     60  40  47 NW7       29.90R
PLATTSMOUTH    CLEAR     56  46  67 NW5       29.91R
$$

NEZ044-045-051>053-067-280800-
OMAHA AREA

CITY           SKY/WX    TMP DP  RH WIND       PRES   REMARKS
OMAHA EPPLEY   CLEAR     54  48  80 N8        29.92R
BLAIR          CLEAR     59  47  65 N9        29.93R
FREMONT        CLEAR     51  46  83 N3        29.94R
MILLARD        CLEAR     58  50  76 CALM      29.92R
OFFUTT AFB     CLEAR     54  51  89 NW2       29.91R
PLATTSMOUTH    CLEAR     56  46  67 NW5       29.91R
WAHOO          FAIR      55  47  74 NW6       29.94R
$$




USA.gov is the U.S. government's official web portal to all federal, state and local government web resources and services.